Seattle, WA
on Monday, January 14, 2013

Monday
Previous Day Next Day
Daily Summary
 ActualAverageRecord
Temperature
Mean Temperature °F 42°F  
Max Temperature 38°F 47°F 59°F (1968)
Min Temperature 28°F 37°F 8°F (1950)
Degree Days
Heating Degree Days 32 23  
Month to date heating degree days 379 330  
Since 1 July heating degree days 2130 2268  
Cooling Degree Days 0 0  
Month to date cooling degree days 0 0  
Year to date cooling degree days 0 0  
Moisture
Dew Point 26°F   
Average Humidity 71    
Maximum Humidity 82    
Minimum Humidity 59    
Precipitation
Precipitation 0.00 in 0.19 in 1.61 in (1988)
Month to date precipitation 2.71 2.64  
Year to date precipitation 2.71 2.64  
Snow
Snow 0.00 in in 4.00 in (1950)
Month to date snowfall T  
Since 1 July snowfall 0.6  
Snow Depth 0.00 in   
Wind
Wind Speed 3 mph   
Max Wind Speed 7 mph   
Max Gust Speed 9 mph   
Visibility 10 miles   
Events     

Key: T is trace of precipitation, MM is missing value
Source: NWS Daily Summary
Time(PST)TemperatureDew PointHumidity Pressure Visibility Wind DirectionWind SpeedGust SpeedPrecipitationEvents Conditions
12:53 AM 28.9°F 23.0°F 78% 30.50 in 10.0 miles SE 3.5 mph - N/A   Overcast
1:53 AM 30.0°F 23.0°F 75% 30.50 in 10.0 miles ESE 4.6 mph - N/A   Overcast
2:53 AM 28.9°F 23.0°F 78% 30.51 in 10.0 miles ESE 4.6 mph - N/A   Mostly Cloudy
3:53 AM 30.0°F 24.1°F 79% 30.51 in 10.0 miles SE 4.6 mph - N/A   Mostly Cloudy
4:53 AM 30.0°F 24.1°F 79% 30.51 in 10.0 miles Calm Calm - N/A   Overcast
5:53 AM 30.0°F 24.1°F 79% 30.51 in 10.0 miles Calm Calm - N/A   Overcast
6:53 AM 30.0°F 24.1°F 79% 30.51 in 10.0 miles SE 5.8 mph - N/A   Overcast
7:37 AM 28.4°F 23.0°F 80% 30.49 in 10.0 miles ESE 4.6 mph - N/A   Overcast
7:53 AM 30.0°F 24.1°F 79% 30.53 in 10.0 miles SE 4.6 mph - N/A   Overcast
8:53 AM 30.0°F 24.1°F 79% 30.53 in 10.0 miles SE 5.8 mph - N/A   Overcast
9:53 AM 30.9°F 25.0°F 79% 30.54 in 10.0 miles ESE 4.6 mph - N/A   Overcast
10:53 AM 32.0°F 27.0°F 82% 30.55 in 10.0 miles SSE 4.6 mph - N/A   Overcast
11:53 AM 33.1°F 27.0°F 78% 30.53 in 10.0 miles Calm Calm - N/A   Overcast
12:53 PM 35.1°F 27.0°F 72% 30.53 in 10.0 miles Calm Calm - N/A   Mostly Cloudy
1:53 PM 37.4°F 26.6°F 65% 30.50 in 10.0 miles SSE 4.6 mph - N/A   Mostly Cloudy
2:53 PM 37.0°F 25.0°F 62% 30.54 in 10.0 miles WSW 6.9 mph - N/A   Mostly Cloudy
3:53 PM 36.0°F 25.0°F 64% 30.54 in 10.0 miles SW 4.6 mph - N/A   Mostly Cloudy
4:53 PM 36.0°F 27.0°F 70% 30.54 in 10.0 miles SSW 3.5 mph - N/A   Mostly Cloudy
5:53 PM 35.1°F 27.0°F 72% 30.55 in 10.0 miles WSW 3.5 mph - N/A   Mostly Cloudy
6:53 PM 34.0°F 28.0°F 79% 30.56 in 10.0 miles Calm Calm - N/A   Mostly Cloudy
7:53 PM 35.1°F 28.0°F 76% 30.57 in 10.0 miles Calm Calm - N/A   Mostly Cloudy
8:18 PM 35.6°F 28.4°F 75% 30.54 in 10.0 miles Calm Calm - N/A   Mostly Cloudy
8:53 PM 36.0°F 28.9°F 76% 30.58 in 10.0 miles Calm Calm - N/A   Overcast
9:15 PM 35.6°F 28.4°F 75% 30.55 in 10.0 miles Calm Calm - N/A   Overcast
9:53 PM 35.1°F 28.9°F 78% 30.58 in 10.0 miles Calm Calm - N/A   Mostly Cloudy
10:38 PM 35.6°F 28.4°F 75% 30.55 in 10.0 miles Calm Calm - N/A   Overcast
10:53 PM 36.0°F 28.9°F 76% 30.59 in 10.0 miles Calm Calm - N/A   Overcast
11:53 PM 35.1°F 28.9°F 78% 30.59 in 10.0 miles North 3.5 mph - N/A   Overcast
Moon Phase
Jan. 14 Jan. 18 Jan. 26 Feb. 03 Feb. 10
Sunrise:07:52 AM (PST) Moon Rise:09:11 AM (PST)1/14
Sunset:04:44 PM (PST) Moon Set:08:55 PM (PST)1/14

Copyright © 2014 The Weather Underground, Inc.